Find Starlink 31146

NORAD ID: 58769 Int'l Des: 2024-011 Owner: SPXS Country: US Constellation: starlink operational
LEOCIRCULAR

現在のビュー

3D地球を読み込み中...

About Starlink 31146

Starlink 31146 (NORAD 58769) is a starlink constellation satellite (v2 mini) launched Jan 14, 2024 by SPXS of US. It operates in LEO, CIRCULAR orbit with a mass of 730.00 kg.

Starlink 31146について

説明を読み込み中...

次回通過

Passes for default location (London). Set your location on the main map for personalized predictions.

高度履歴

Loading altitude history...

軌道要素

1 58769U 24011E 26170.58335648 .00013570 00000-0 41225-3 0 9994
2 58769 53.1594 260.1921 0001310 81.7191 274.0412 15.34384156 5866
Epoch: Jun 19, 2026 • Age: 8 hours

現在のステータス

高度 469.6 km
速度 7.63 km/s
衛星直下点 -22.96°S, 6.52°E
打ち上げ日 Jan 14, 2024
運用期間 2.4 years
タイプ internet

技術仕様

分類 Payload
質量 730.00 kg
乾燥質量 700.00 kg
総質量 730.00 kg
長さ 0.30 m
直径 4.10 m
スパン 29.00 m
形状 Box + pan
製造者 SPXS
バスタイプ Starlink V2M
フェーズステータス In Orbit
所有者/国 SPXS/US

Most Searched